• In Belarus
  • List of Countries
  • For 7 days
  • Water Temperature
  • Weather Map
  • Weather Widgets
  • user-avatar
    Login

    Hourly Weather Solden

    Today, 18 February, Tuesday

    Time Temperature Precipitation Wind Pressure Humidity
    00:00 -2°C° 0.2 mm 1 mps 583 mmHg 94%
    01:00 -2°C° 0 mm 1 mps 583 mmHg 95%
    02:00 -3°C° 0.4 mm 1 mps 583 mmHg 94%
    03:00 -5°C° 0.4 mm 2 mps 583 mmHg 92%
    04:00 -5°C° 0.4 mm 2 mps 583 mmHg 91%
    05:00 -6°C° 0.1 mm 2 mps 583 mmHg 89%
    06:00 -7°C° 0.1 mm 2 mps 583 mmHg 86%
    07:00 -9°C° 0 mm 3 mps 582 mmHg 83%
    08:00 -7°C° 0 mm 2 mps 583 mmHg 78%
    09:00 -5°C° 0 mm 2 mps 584 mmHg 74%
    10:00 -4°C° 0 mm 2 mps 585 mmHg 69%
    11:00 -3°C° 0 mm 2 mps 585 mmHg 65%
    12:00 -1°C° 0 mm 1 mps 585 mmHg 62%
    13:00 +1°C° 0 mm 1 mps 586 mmHg 59%
    14:00 0°C° 0 mm 1 mps 585 mmHg 61%
    15:00 0°C° 0 mm 1 mps 585 mmHg 63%
    16:00 0°C° 0 mm 1 mps 585 mmHg 65%
    17:00 -2°C° 0 mm 1 mps 584 mmHg 70%
    18:00 -4°C° 0 mm 1 mps 583 mmHg 74%
    19:00 -7°C° 0 mm 1 mps 583 mmHg 79%
    20:00 -7°C° 0 mm 1 mps 583 mmHg 77%
    21:00 -7°C° 0 mm 1 mps 583 mmHg 74%
    22:00 -8°C° 0 mm 1 mps 582 mmHg 72%
    23:00 -8°C° 0 mm 1 mps 582 mmHg 71%

    Tomorrow, 19 February, Wednesday

    Time Temperature Precipitation Wind Pressure Humidity
    00:00 -8°C° 0 mm 1 mps 582 mmHg 70%
    01:00 -9°C° 0 mm 1 mps 581 mmHg 69%
    02:00 -9°C° 0 mm 1 mps 581 mmHg 70%
    03:00 -9°C° 0 mm 1 mps 580 mmHg 70%
    04:00 -9°C° 0 mm 1 mps 580 mmHg 70%
    05:00 -9°C° 0 mm 1 mps 580 mmHg 69%
    06:00 -9°C° 0 mm 1 mps 580 mmHg 67%
    07:00 -9°C° 0 mm 1 mps 580 mmHg 65%
    08:00 -8°C° 0 mm 1 mps 580 mmHg 61%
    09:00 -6°C° 0 mm 1 mps 581 mmHg 57%
    10:00 -4°C° 0 mm 1 mps 581 mmHg 53%
    11:00 -3°C° 0 mm 1 mps 581 mmHg 51%
    12:00 -2°C° 0 mm 1 mps 581 mmHg 49%
    13:00 -1°C° 0 mm 1 mps 582 mmHg 47%
    14:00 -2°C° 0.1 mm 1 mps 581 mmHg 51%
    15:00 -4°C° 0.1 mm 2 mps 581 mmHg 55%
    16:00 -5°C° 0.1 mm 2 mps 581 mmHg 59%
    17:00 -6°C° 0.1 mm 2 mps 581 mmHg 64%
    18:00 -8°C° 0.1 mm 2 mps 580 mmHg 68%
    19:00 -9°C° 0.1 mm 2 mps 580 mmHg 73%
    20:00 -10°C° 0 mm 2 mps 580 mmHg 73%
    21:00 -10°C° 0 mm 2 mps 580 mmHg 73%
    22:00 -12°C° 0 mm 2 mps 580 mmHg 74%
    23:00 -12°C° 0 mm 2 mps 580 mmHg 73%

    Day after tomorrow, 20 February, Thursday

    Time Temperature Precipitation Wind Pressure Humidity
    00:00 -12°C° 0 mm 2 mps 580 mmHg 71%
    01:00 -12°C° 0 mm 2 mps 580 mmHg 70%
    02:00 -12°C° 0 mm 2 mps 580 mmHg 67%
    03:00 -12°C° 0 mm 2 mps 580 mmHg 64%
    04:00 -12°C° 0 mm 2 mps 580 mmHg 61%
    05:00 -10°C° 0 mm 1 mps 580 mmHg 60%
    06:00 -10°C° 0 mm 1 mps 580 mmHg 60%
    07:00 -9°C° 0 mm 1 mps 580 mmHg 59%
    08:00 -8°C° 0 mm 1 mps 581 mmHg 56%
    09:00 -6°C° 0 mm 1 mps 582 mmHg 53%
    10:00 -4°C° 0 mm 0 mps 583 mmHg 50%
    11:00 -2°C° 0 mm 1 mps 583 mmHg 51%
    12:00 -1°C° 0 mm 1 mps 583 mmHg 51%
    13:00 -1°C° 0 mm 1 mps 583 mmHg 52%
    14:00 -1°C° 0 mm 1 mps 583 mmHg 53%
    15:00 -1°C° 0 mm 1 mps 583 mmHg 55%
    16:00 -1°C° 0 mm 1 mps 582 mmHg 57%
    17:00 -2°C° 0 mm 1 mps 582 mmHg 61%
    18:00 -4°C° 0 mm 1 mps 581 mmHg 65%
    19:00 -6°C° 0 mm 0 mps 580 mmHg 69%
    20:00 -6°C° 0 mm 0 mps 580 mmHg 67%
    21:00 -6°C° 0 mm 0 mps 580 mmHg 66%
    22:00 -7°C° 0 mm 0 mps 580 mmHg 64%
    23:00 -7°C° 0 mm 0 mps 580 mmHg 62%

    21 February, Friday

    Time Temperature Precipitation Wind Pressure Humidity
    00:00 -7°C° 0 mm 0 mps 580 mmHg 61%
    01:00 -7°C° 0 mm 1 mps 580 mmHg 59%
    02:00 -7°C° 0 mm 1 mps 580 mmHg 62%
    03:00 -7°C° 0 mm 1 mps 580 mmHg 64%
    04:00 -8°C° 0 mm 2 mps 580 mmHg 66%
    05:00 -8°C° 0 mm 2 mps 581 mmHg 65%
    06:00 -8°C° 0 mm 2 mps 581 mmHg 64%
    07:00 -8°C° 0 mm 2 mps 581 mmHg 63%
    14:00 +1°C° 0 mm 2 mps 587 mmHg 56%
    15:00 -2°C° 0 mm 2 mps 586 mmHg 58%
    16:00 -2°C° 0 mm 2 mps 586 mmHg 60%
    17:00 -4°C° 0 mm 2 mps 586 mmHg 63%
    18:00 -6°C° 0 mm 2 mps 585 mmHg 67%
    19:00 -7°C° 0 mm 2 mps 585 mmHg 70%
    20:00 -8°C° 0 mm 2 mps 585 mmHg 66%
    21:00 -7°C° 0 mm 1 mps 585 mmHg 62%
    22:00 -7°C° 0 mm 1 mps 586 mmHg 58%
    23:00 -7°C° 0 mm 1 mps 586 mmHg 56%

    22 February, Saturday

    Time Temperature Precipitation Wind Pressure Humidity
    00:00 -7°C° 0 mm 1 mps 586 mmHg 54%
    01:00 -7°C° 0 mm 1 mps 586 mmHg 53%
    02:00 -7°C° 0 mm 1 mps 586 mmHg 52%
    03:00 -7°C° 0 mm 1 mps 586 mmHg 50%
    04:00 -7°C° 0 mm 1 mps 586 mmHg 49%
    05:00 -7°C° 0 mm 1 mps 586 mmHg 47%
    06:00 -7°C° 0 mm 1 mps 586 mmHg 45%
    07:00 -6°C° 0 mm 1 mps 586 mmHg 43%
    08:00 -4°C° 0 mm 1 mps 587 mmHg 42%
    09:00 -2°C° 0 mm 1 mps 588 mmHg 42%
    10:00 0°C° 0 mm 1 mps 589 mmHg 42%
    11:00 +1°C° 0 mm 1 mps 589 mmHg 45%
    12:00 +2°C° 0 mm 1 mps 590 mmHg 47%
    13:00 +3°C° 0 mm 1 mps 590 mmHg 50%
    14:00 +3°C° 0 mm 1 mps 589 mmHg 53%
    15:00 +2°C° 0 mm 1 mps 589 mmHg 55%
    16:00 +1°C° 0 mm 0 mps 589 mmHg 58%
    17:00 +1°C° 0 mm 1 mps 588 mmHg 59%
    18:00 -1°C° 0 mm 1 mps 588 mmHg 59%
    19:00 -2°C° 0 mm 1 mps 588 mmHg 60%
    20:00 -2°C° 0 mm 1 mps 588 mmHg 58%
    21:00 -2°C° 0 mm 1 mps 588 mmHg 56%
    22:00 -4°C° 0 mm 2 mps 588 mmHg 53%
    23:00 -4°C° 0 mm 2 mps 588 mmHg 50%

    23 February, Sunday

    Time Temperature Precipitation Wind Pressure Humidity
    00:00 -2°C° 0 mm 1 mps 588 mmHg 46%
    01:00 -2°C° 0 mm 1 mps 588 mmHg 43%
    02:00 -2°C° 0 mm 1 mps 588 mmHg 41%
    03:00 -4°C° 0 mm 2 mps 587 mmHg 39%
    04:00 -4°C° 0 mm 2 mps 587 mmHg 36%
    05:00 -4°C° 0 mm 2 mps 587 mmHg 35%
    06:00 -4°C° 0 mm 2 mps 587 mmHg 34%
    07:00 -4°C° 0 mm 2 mps 587 mmHg 33%
    08:00 0°C° 0 mm 1 mps 588 mmHg 36%
    09:00 +2°C° 0 mm 1 mps 589 mmHg 39%
    10:00 +3°C° 0 mm 1 mps 589 mmHg 42%
    11:00 +4°C° 0 mm 1 mps 590 mmHg 45%
    12:00 +5°C° 0 mm 1 mps 590 mmHg 48%
    13:00 +6°C° 0 mm 1 mps 590 mmHg 50%
    14:00 +6°C° 0 mm 1 mps 589 mmHg 52%
    15:00 +5°C° 0 mm 1 mps 589 mmHg 54%
    16:00 +5°C° 0 mm 1 mps 588 mmHg 55%
    17:00 +3°C° 0 mm 1 mps 587 mmHg 53%
    18:00 +2°C° 0 mm 1 mps 587 mmHg 52%
    19:00 -2°C° 0 mm 2 mps 586 mmHg 50%
    20:00 -2°C° 0 mm 2 mps 586 mmHg 49%
    21:00 -2°C° 0 mm 2 mps 586 mmHg 48%
    22:00 -2°C° 0 mm 2 mps 586 mmHg 47%
    23:00 -3°C° 0 mm 2 mps 586 mmHg 47%
    Show more